Location: Bacharowice
(49.9333°N, 19.5833°E)
Time: 03:54:23
(UTC+00:00)

Cosmos 1544 - Pass Details

Date: 11 May 2021
Orbit: 471 x 487 km, 82.5° (Epoch: 22 June)

Event Time Altitude Azimuth Distance (km) Brightness Sun altitude
Rises 21:31:12 0° 341° (NNW) 2,538 8.3 -20.4°
Reaches altitude 10° 21:33:27 10° 330° (NNW) 1,657 6.9 -20.5°
Maximum altitude 21:36:38 30° 269° (W) 891 4.5 -20.6°
Enters shadow 21:37:16 28° 248° (WSW) 933 4.4 -20.6°
